Flag for Poland Weather past 2 weeks in Gdańsk, Poland

Now
59 °F

Passing clouds.


Feels Like: 57 °F
Forecast: 54 / 69 °F
Wind: 9 mph from West

Location: Gdansk-Rebiechowo

Current Time: Sep 2, 2015 at 10:47:35 AM

Latest Report: Sep 2, 2015 at 10:00 AM


Visibility: N/A

Pressure: 29.86 "Hg

Humidity: 88%

Dew point: 55 °F

Location of GdańskLocation

Historic Weather in Gdańsk — Graph

°F

Gdańsk temperature yesterday

Maximum temperature yesterday: 90 °F (at 2:00 PM)
Minimum temperature yesterday: 64 °F (at 5:30 AM)
Average temperature yesterday: 76 °F

Past Weeks' High & Low Weather Summary

 TemperatureHumidityPressure
High90 °F (Sep 1, 2:00 PM)100% (Aug 21, 4:00 AM)30.39 "Hg (Aug 21, 4:00 AM)
Low46 °F (Aug 20, 6:00 AM)26% (Aug 27, 3:30 PM)29.65 "Hg (Sep 1, 10:00 AM)
Average65 °F65%30.07 "Hg
* Reported Aug 18 10:00 AM — Sep 2 10:00 AM, Gdańsk, Weather by CustomWeather, © 2015

Note: Actual official high and low records may vary slightly from our data, if they occured in-between our weather recording intervals... More about our weather records

Advertising

Gdańsk weather history for previous 24 hours

 ConditionsComfort  
Time TempWeatherWind HumidityBarometerVisibility
10:00 AM
Wed, Sep 2
59 °FPassing clouds.9 mph88%29.86 "HgN/A
9:30 AM59 °FPassing clouds.12 mph88%29.86 "HgN/A
9:00 AM59 °FSprinkles. Passing clouds.12 mph88%29.83 "HgN/A
8:30 AM59 °FSprinkles. Scattered clouds.14 mph88%29.83 "HgN/A
8:00 AM59 °FPassing clouds.17 mph94%29.83 "HgN/A
7:30 AM59 °FBroken clouds.17 mph94%29.80 "HgN/A
7:00 AM59 °FPartly sunny.15 mph94%29.80 "HgN/A
6:00 AM61 °FPassing clouds.12 mph94%29.77 "HgN/A
5:30 AM61 °FPassing clouds.8 mph94%29.80 "HgN/A
5:00 AM61 °FSprinkles. Passing clouds.8 mph94%29.80 "Hg5 mi
4:30 AM61 °FSprinkles. Passing clouds.9 mph94%29.77 "Hg5 mi
4:00 AM61 °FSprinkles. Passing clouds.16 mph94%29.77 "Hg4 mi
3:30 AM61 °FSprinkles. Passing clouds.9 mph100%29.77 "Hg4 mi
3:00 AM63 °FSprinkles. Fog.6 mph94%29.77 "Hg2 mi
2:30 AM63 °FSprinkles. Passing clouds.6 mph94%29.77 "Hg5 mi
2:00 AM63 °FThundershowers. Partly cloudy.5 mph94%29.71 "Hg4 mi
1:30 AM63 °FThundershowers. Partly cloudy.6 mph94%29.74 "Hg4 mi
1:00 AM64 °FRain showers. Partly cloudy.15 mph83%29.83 "Hg4 mi
11:30 PM
Tue, Sep 1
64 °FClear.2 mph83%29.74 "Hg10 mi
11:00 PM66 °FClear.2 mph78%29.74 "Hg10 mi
10:30 PM66 °FClear.2 mph78%29.74 "Hg10 mi
10:00 PM68 °FClear.5 mph73%29.74 "Hg10 mi
9:30 PM68 °FClear.3 mph73%29.74 "Hg10 mi
9:00 PM68 °FPassing clouds.3 mph73%29.74 "HgN/A
8:30 PM70 °FSunny.6 mph69%29.74 "Hg10 mi
8:00 PM72 °FSunny.6 mph65%29.71 "Hg10 mi
7:30 PM73 °FSunny.10 mph61%29.71 "Hg10 mi
7:00 PM75 °FSunny.12 mph61%29.71 "Hg10 mi
6:30 PM77 °FPassing clouds.9 mph57%29.71 "HgN/A
6:00 PM79 °FSunny.12 mph54%29.71 "Hg10 mi
5:30 PM81 °FSunny.14 mph51%29.68 "Hg10 mi
5:00 PM82 °FPassing clouds.10 mph51%29.68 "HgN/A
4:30 PM82 °FSunny.12 mph51%29.68 "Hg10 mi
4:00 PM86 °FPassing clouds.10 mph46%29.68 "HgN/A
3:30 PM88 °FPassing clouds.10 mph33%29.68 "HgN/A
3:00 PM90 °FPassing clouds.8 mph31%29.68 "HgN/A
2:30 PM90 °FPassing clouds.7 mph29%29.68 "HgN/A
2:00 PM90 °FPassing clouds.6 mph33%29.68 "HgN/A
1:30 PM88 °FPassing clouds.6 mph35%29.68 "HgN/A
1:00 PM86 °FSprinkles. Passing clouds.7 mph40%29.68 "HgN/A
12:30 PM84 °FPassing clouds.5 mph43%29.68 "HgN/A
12:00 PM84 °FSunny.2 mph48%29.68 "Hg10 mi
11:30 AM82 °FSunny.1 mph51%29.68 "Hg10 mi
11:00 AM81 °FPassing clouds.5 mph54%29.68 "HgN/A
10:30 AM81 °FPassing clouds.6 mph51%29.65 "HgN/A
10:00 AM77 °FPassing clouds.6 mph57%29.65 "HgN/A
Weather by CustomWeather, © 2015

See weather overviewHow to use our weather pages